Total_Precipitation_Accumulation
0.01 0.02 0.03 0.07 0.21 0.41 0.49 0.41 0.37 0.47 0.51 0.45 0.48 0.49 0.52 0.66 1.17 2.09 1.25 0.66 0.48 0.45 0.46 0.36 0.42 0.49 0.57 0.64 0.71 0.77 0.76 0.76 0.74 0.73 0.79 0.92 1.00 1.12 1.12 1.16 1.63 1.83 1.98 2.03 2.10 2.26 2.37 2.31 2.46
0.02 0.03 0.05 0.11 0.28 0.55 0.55 0.42 0.44 0.47 0.53 0.52 0.53 0.54 0.55 0.60 0.54 0.59 0.64 0.60 0.44 0.40 0.42 0.34 0.43 0.55 0.58 0.63 0.68 0.80 0.78 0.77 0.76 0.73 0.79 0.90 1.00 1.13 1.25 1.38 1.64 1.98 2.17 2.30 2.50 2.67 2.65 2.46 2.47
0.04 0.04 0.09 0.18 0.24 0.41 0.52 0.49 0.54 0.50 0.48 0.59 0.71 0.79 0.81 0.75 0.66 0.63 0.58 0.46 0.38 0.31 0.34 0.43 0.53 0.60 0.65 0.66 0.68 0.75 0.81 0.85 0.85 0.88 0.87 0.95 1.02 1.05 1.12 1.34 1.53 1.73 1.91 2.09 2.32 2.48 2.65 2.47 2.42
0.04 0.06 0.11 0.16 0.21 0.27 0.43 0.55 0.57 0.63 0.61 0.53 0.63 1.00 0.93 0.70 0.70 0.72 0.54 0.45 0.43 0.37 0.32 0.42 0.57 0.62 0.68 0.74 0.72 0.71 0.76 0.88 1.02 1.11 1.07 1.07 1.11 1.15 1.19 1.37 1.53 1.66 1.67 1.74 1.97 2.29 2.59 2.61 2.46
0.04 0.09 0.18 0.22 0.21 0.25 0.36 0.51 0.54 0.60 0.68 0.62 0.70 1.10 1.06 0.87 0.83 0.94 0.83 0.62 0.60 0.57 0.54 0.51 0.59 0.64 0.69 0.78 0.79 0.82 0.83 0.94 1.11 1.20 1.23 1.23 1.21 1.17 1.30 1.56 1.84 1.86 1.65 1.67 1.72 1.89 2.13 2.52 2.59
0.05 0.09 0.24 0.23 0.19 0.30 0.41 0.53 0.54 0.58 0.66 0.77 0.93 1.31 1.57 1.41 1.26 1.34 1.32 0.95 0.81 0.74 0.70 0.71 0.69 0.65 0.74 0.84 0.84 0.89 0.96 1.03 1.17 1.27 1.38 1.34 1.24 1.22 1.36 1.70 1.98 1.98 1.82 1.80 1.66 1.68 1.90 2.26 2.53
0.05 0.12 0.22 0.17 0.20 0.34 0.45 0.57 0.59 0.67 0.89 0.99 1.13 1.64 1.83 1.73 1.66 1.50 1.59 1.35 1.01 0.96 0.95 0.96 0.83 0.80 0.88 1.01 0.98 0.98 1.02 1.09 1.22 1.43 1.56 1.51 1.41 1.43 1.51 1.64 1.81 1.93 1.95 1.99 1.92 1.87 1.98 2.14 2.43
0.06 0.14 0.17 0.18 0.22 0.37 0.52 0.62 0.65 0.74 1.05 1.17 1.22 1.72 1.99 1.87 1.63 1.54 1.62 1.66 1.42 1.34 1.32 1.26 1.26 1.24 1.14 1.18 1.32 1.26 1.23 1.23 1.24 1.37 1.61 1.66 1.59 1.58 1.66 1.62 1.80 1.95 2.09 2.21 2.32 2.45 2.45 2.42 2.41
0.05 0.15 0.16 0.13 0.18 0.37 0.52 0.67 0.74 0.77 0.98 1.18 1.11 1.29 1.72 1.55 1.73 1.96 1.86 1.94 1.89 1.78 1.71 1.50 1.56 1.59 1.44 1.40 1.36 1.53 1.51 1.45 1.41 1.47 1.66 1.76 1.88 1.90 1.92 1.86 2.16 2.27 2.50 2.69 2.82 2.87 2.70 2.61 2.48
0.04 0.13 0.13 0.10 0.14 0.31 0.49 0.67 0.81 0.90 0.98 1.18 1.22 1.20 1.46 1.64 1.67 1.96 2.30 2.14 2.14 1.99 1.88 1.81 1.66 1.59 1.57 1.48 1.59 1.78 1.73 1.74 1.63 1.86 1.87 2.02 2.47 2.67 2.39 2.68 2.83 2.90 3.04 3.10 3.02 3.01 2.82 2.51 2.17
0.05 0.10 0.11 0.12 0.18 0.31 0.49 0.64 0.67 0.83 1.05 1.15 1.33 1.39 1.57 1.80 2.02 2.05 2.47 2.49 2.42 2.32 2.12 2.15 2.01 1.85 2.04 2.15 2.03 2.04 2.13 2.27 2.15 2.31 2.38 2.58 2.82 2.91 2.95 3.14 3.15 3.28 3.39 3.29 3.25 3.14 2.74 2.40 2.22
0.05 0.07 0.10 0.16 0.20 0.29 0.42 0.53 0.70 0.91 1.32 1.35 1.65 1.97 2.02 1.95 2.26 2.32 2.65 2.68 2.78 2.94 2.76 2.63 2.62 2.48 2.59 2.85 2.64 2.35 2.28 2.38 2.47 2.73 2.66 3.00 3.19 3.24 3.27 3.37 3.37 3.43 3.48 3.48 3.26 3.19 3.00 2.75 2.47
0.06 0.08 0.09 0.15 0.25 0.34 0.44 0.57 0.77 1.05 1.24 1.33 1.74 2.16 2.27 2.12 2.06 2.32 2.99 2.83 2.86 3.14 3.30 3.07 3.02 2.95 3.12 3.32 3.18 2.92 2.88 2.66 2.65 3.01 3.10 3.24 3.40 3.43 3.56 3.56 3.59 3.38 3.36 3.30 3.19 3.08 3.19 3.06 2.79
0.08 0.09 0.12 0.13 0.21 0.32 0.47 0.58 0.76 0.98 0.92 1.08 1.41 1.76 1.94 2.11 2.14 2.33 2.71 2.84 2.81 3.09 3.39 3.51 3.50 3.41 3.21 3.31 3.38 3.16 2.90 3.01 2.91 2.95 3.13 3.18 3.40 3.72 3.82 3.79 3.79 3.70 3.57 3.61 3.44 3.25 3.46 3.38 3.25
0.06 0.10 0.15 0.16 0.21 0.33 0.43 0.66 0.88 1.11 1.06 1.16 1.36 1.53 1.84 2.11 2.44 2.65 2.77 2.81 2.83 2.97 3.20 3.39 3.50 3.65 3.45 3.44 3.49 3.32 3.13 3.15 3.24 3.30 3.47 3.38 3.37 3.74 3.95 4.10 4.01 4.02 3.91 3.88 3.82 3.80 3.91 3.62 3.45
0.09 0.13 0.24 0.26 0.23 0.27 0.46 0.89 1.11 1.15 1.22 1.29 1.36 1.51 1.74 2.12 2.42 2.53 2.48 2.55 2.53 2.59 2.91 3.23 3.36 3.55 3.74 3.80 3.94 3.68 3.70 3.78 3.77 3.60 3.57 3.48 3.50 3.74 4.13 4.25 4.24 4.35 4.26 4.34 4.42 4.33 4.24 4.17 3.91
0.14 0.18 0.25 0.35 0.29 0.27 0.49 0.94 1.16 1.12 1.28 1.38 1.38 1.44 1.60 1.89 2.18 2.31 2.35 2.37 2.37 2.37 2.87 3.23 3.56 3.92 4.14 4.33 4.56 4.51 4.61 4.51 4.32 4.24 4.08 4.11 4.24 4.27 4.49 4.60 4.70 4.74 4.78 4.85 4.63 4.83 4.63 4.60 4.44
0.22 0.23 0.27 0.29 0.29 0.31 0.49 0.79 0.98 1.11 1.28 1.46 1.46 1.46 1.50 1.77 2.10 2.21 2.30 2.45 2.37 2.49 2.93 3.34 3.67 4.28 4.78 4.87 5.06 5.17 5.41 5.36 5.20 5.24 5.11 4.82 4.92 5.01 5.20 5.11 5.19 5.24 5.34 5.24 5.23 5.37 5.16 4.87 4.85
0.20 0.26 0.33 0.29 0.27 0.35 0.46 0.68 0.94 1.10 1.32 1.55 1.52 1.52 1.65 1.79 2.11 2.26 2.35 2.54 2.84 3.12 3.33 3.59 3.88 4.26 4.55 4.98 5.36 5.56 5.75 5.96 6.02 5.98 5.95 5.91 5.85 6.00 6.11 5.82 5.92 5.84 5.72 5.51 5.51 5.46 5.25 4.99 4.98
0.15 0.22 0.31 0.34 0.33 0.35 0.51 0.72 0.96 1.09 1.26 1.54 1.64 1.68 1.70 1.83 2.04 2.36 2.69 3.08 3.33 3.55 3.67 3.94 4.28 4.59 4.77 5.17 5.71 6.23 6.48 6.57 6.58 6.60 6.74 6.74 6.71 6.89 6.96 6.97 6.73 6.56 6.34 5.86 5.51 5.41 5.19 4.82 4.94
0.12 0.18 0.21 0.30 0.37 0.43 0.64 1.08 1.31 1.35 1.50 1.66 1.69 1.81 1.82 1.90 2.16 2.47 2.95 3.29 3.41 3.55 3.68 3.89 4.44 4.93 5.38 5.82 6.40 6.91 7.27 7.30 7.14 6.82 6.93 7.07 6.86 6.91 7.21 7.34 7.10 6.77 6.21 5.67 5.57 5.55 5.37 5.12 4.99
0.14 0.15 0.17 0.25 0.39 0.57 0.65 1.36 1.77 1.87 1.89 1.82 1.83 1.91 1.88 1.89 2.12 2.48 2.79 3.10 3.29 3.39 3.70 4.01 4.45 5.13 5.66 5.94 6.57 7.27 7.51 7.77 7.81 7.61 7.33 7.14 6.87 6.69 6.66 6.64 6.32 5.96 5.59 5.33 5.20 5.33 5.22 5.19 4.95
0.12 0.13 0.19 0.24 0.33 0.52 0.58 1.11 1.90 2.10 2.26 2.03 1.97 1.98 1.81 1.77 1.93 2.30 2.58 2.91 3.30 3.39 3.52 3.76 4.33 4.95 5.69 6.33 6.84 7.47 7.92 8.20 8.13 7.71 7.23 6.70 6.37 5.90 5.46 5.21 5.09 5.07 4.90 4.70 4.62 4.73 4.67 4.40 4.28
0.12 0.17 0.27 0.33 0.44 0.73 0.70 1.06 1.99 2.29 2.48 2.55 2.23 1.99 1.79 1.74 1.82 2.02 2.33 2.63 2.95 3.01 3.25 3.54 4.01 4.74 5.45 6.04 6.64 7.17 7.58 7.71 7.41 6.87 6.33 5.95 5.59 5.05 4.51 4.31 4.25 4.20 4.04 3.87 3.78 3.81 3.84 3.86 3.91
0.15 0.32 0.67 0.88 0.99 0.97 0.75 1.10 1.95 2.15 2.00 2.10 2.16 2.18 1.96 1.75 1.84 2.09 2.33 2.64 2.78 2.84 3.09 3.46 4.01 4.65 5.05 5.51 6.03 6.36 6.57 6.70 6.67 6.38 5.92 5.53 5.02 4.54 4.09 3.70 3.58 3.35 3.20 3.17 3.29 3.31 3.25 3.39 3.50
0.16 0.33 0.87 1.16 1.15 1.13 1.11 1.61 2.28 2.12 1.78 1.78 1.92 2.06 1.88 1.80 1.99 2.35 2.46 2.61 2.80 2.85 3.09 3.47 3.93 4.34 4.56 4.74 5.14 5.45 5.58 5.61 5.47 5.32 4.93 4.61 4.24 3.92 3.69 3.29 2.95 2.73 2.60 2.55 2.80 2.91 2.92 3.01 3.14
0.22 0.29 0.46 0.69 0.76 1.15 1.66 2.19 2.80 2.63 2.06 1.86 1.91 1.95 1.99 1.95 2.06 2.35 2.51 2.62 2.73 2.78 2.98 3.19 3.49 3.71 3.95 4.09 4.27 4.47 4.51 4.39 4.23 4.06 3.80 3.59 3.39 3.06 2.93 2.72 2.56 2.45 2.41 2.44 2.55 2.56 2.68 2.86 2.92
0.22 0.32 0.47 0.77 1.15 1.54 1.88 2.64 3.49 3.32 2.64 2.18 2.06 2.01 2.02 2.00 2.05 2.25 2.37 2.51 2.59 2.58 2.67 2.77 3.01 3.19 3.42 3.55 3.54 3.42 3.47 3.39 3.22 3.01 2.87 2.68 2.50 2.41 2.39 2.32 2.35 2.31 2.25 2.31 2.41 2.31 2.37 2.52 2.51
0.29 0.38 0.57 0.76 0.88 1.49 2.18 3.13 3.31 3.35 3.03 2.62 2.21 1.99 1.95 1.94 1.95 2.07 2.24 2.28 2.27 2.26 2.32 2.47 2.64 2.84 2.98 3.02 3.06 3.00 2.90 2.70 2.57 2.39 2.26 2.19 2.12 2.10 2.08 2.10 2.15 2.18 2.18 2.22 2.20 2.03 2.07 2.14 2.30
0.29 0.41 0.62 1.00 1.05 1.24 1.93 3.16 3.15 3.38 3.26 2.93 2.55 2.24 2.10 2.02 1.91 1.85 1.92 1.97 2.00 2.09 2.20 2.34 2.38 2.47 2.53 2.64 2.70 2.72 2.65 2.48 2.28 2.12 2.03 2.04 2.04 2.02 2.01 2.01 1.98 2.00 2.15 2.24 2.16 2.00 1.95 2.07 2.22